Home   Weather   Santa Cruz   Past weeks

Flag for USA Past Weather in Santa Cruz, California, USA — Yesterday and Last 2 Weeks

Now
72 °F

Sunny.


Feels Like: 77 °F
Forecast: 53 / 68 °F
Wind: 7 mph from North

Location: Watsonville Municipal Airport

Current Time: Jun 20, 2018 at 4:11:37 pm

Latest Report: Jun 20, 2018 at 2:53 pm


Visibility: 10 mi

Pressure: 30.00 "Hg

Humidity: 53%

Dew Point: 54 °F

Location of Santa CruzLocation

Past Weather in Santa Cruz — Graph

°F

Santa Cruz Temperature Yesterday

Maximum temperature yesterday: 71 °F (at 2:53 pm)
Minimum temperature yesterday: 53 °F (at 2:53 am)
Average temperature yesterday: 58 °F

High & Low Weather Summary for the Past Weeks

 TemperatureHumidityPressure
High81 °F (Jun 12, 12:53 pm)100% (Jun 8, 7:03 am)30.11 "Hg (Jun 8, 7:03 am)
Low46 °F (Jun 8, 4:53 am)31% (Jun 10, 4:53 pm)29.75 "Hg (Jun 16, 2:53 am)
Average58 °F79%29.94 "Hg
* Reported Jun 5 2:53 pm — Jun 20 2:53 pm, Santa Cruz. Weather by CustomWeather, © 2018

Note: Actual official high and low records may vary slightly from our data, if they occured in-between our weather recording intervals... More about our weather records

Advertising

Santa Cruz Weather History for the Previous 24 Hours

Scroll right to see more
 ConditionsComfort  
Time TempWeatherWind HumidityBarometerVisibility
2:53 pm
Wed, Jun 20
72 °FSunny.7 mph53%30.00 "Hg10 mi
1:53 pm69 °FSunny.7 mph59%30.01 "Hg10 mi
12:53 pm69 °FSunny.8 mph61%30.01 "Hg10 mi
11:53 am65 °FSunny.8 mph70%30.01 "Hg9 mi
10:53 am66 °FSunny.6 mph68%30.02 "Hg8 mi
10:02 am60 °FScattered clouds.6 mph78%30.02 "Hg6 mi
9:04 am57 °FFog.3 mph87%30.02 "Hg6 mi
8:53 am56 °FFog.6 mph87%30.02 "Hg6 mi
6:11 am52 °FFog.No wind100%30.01 "Hg1 mi
5:53 am53 °FFog.No wind96%30.01 "Hg2 mi
5:29 am52 °FFog.3 mph100%30.01 "Hg3 mi
5:15 am52 °FFog.5 mph100%30.01 "Hg2 mi
4:53 am52 °FFog.3 mph100%30.00 "Hg1 mi
4:39 am53 °FFog.No wind100%30.00 "Hg2 mi
4:06 am53 °FFog.No wind100%30.00 "Hg2 mi
3:53 am53 °FFog.No wind100%30.00 "Hg1 mi
3:36 am52 °FFog.No wind100%30.00 "Hg1 mi
3:07 am51 °FFog.No wind96%30.00 "Hg5 mi
1:53 am51 °FFog.No wind96%30.00 "Hg6 mi
12:53 am52 °FClear.No wind93%30.00 "Hg7 mi
11:53 pm
Tue, Jun 19
54 °FClear.No wind90%30.02 "Hg7 mi
10:53 pm54 °FPassing clouds.5 mph90%30.03 "Hg7 mi
10:07 pm54 °FPassing clouds.7 mph93%30.04 "Hg7 mi
9:25 pm55 °FPassing clouds.6 mph90%30.03 "Hg7 mi
8:53 pm55 °FClear.7 mph90%30.02 "Hg7 mi
7:53 pm58 °FSunny.7 mph81%30.01 "Hg7 mi
6:53 pm59 °FSunny.10 mph81%30.01 "Hg7 mi
5:53 pm62 °FSunny.12 mph73%30.01 "Hg8 mi
4:53 pm68 °FSunny.8 mph61%30.00 "Hg10 mi
Weather by CustomWeather, © 2018

See weather overview